User: anonymous   Login
Location: Los Gatos B&B
(42.6926°N, 77.0646°W)
Time: 12:20:23
(UTC-05:00)
Language:

SL-16 R/B - Orbit

View from above orbital plane
View from above orbital plane
View from above satellite
View from above satellite

Ground track
Ground track

The orbit data is extracted from the following two-line orbital elements,

1 28353U 04021B   16038.16693761  .00000198  00000-0  12871-3 0  9995
2 28353  71.0015  38.6736 0007055 244.1778 115.8617 14.14176008602032
Epoch (UTC): 07 February 2016 04:00:23
Eccentricity: 0.0007055
inclination: 71.0015°
perigee height: 840 km
apogee height: 850 km
right ascension of ascending node: 38.6736°
argument of perigee: 244.1778°
revolutions per day: 14.14176008
mean anomaly at epoch: 115.8617°
orbit number at epoch: 60203

The dashed part of the orbit path shows where the satellite is in the earth's shadow,  

DLR